Location: Pian di Sc�
(43.6333°N, 11.5500°E)
Time: 18:18:28
(UTC+00:00)

ERBS - Pass Details

Date: 07 August 2020
Orbit: 412 x 421 km, 57.0° (Epoch: 17 September)

Event Time Altitude Azimuth Distance (km) Brightness Sun altitude
Rises 02:59:40 0° 299° (WNW) 2,349 5.8 -11.8°
Reaches altitude 10° 03:02:08 10° 281° (W) 1,483 4.6 -11.4°
Maximum altitude 03:04:32 19° 234° (SW) 1,063 3.6 -11.1°
Drops below altitude 10° 03:06:55 10° 188° (S) 1,476 4.6 -10.7°
Sets 03:09:23 0° 169° (S) 2,334 5.8 -10.4°
